This demonstration page uses our WeatherBlox Daily Observations layout. Learn more.

Left ArrowRight Arrow

Hourly Observations for February 3, 2015

Temp ( °F °C ) Dew Point ( °F °C ) Humidity (%) Winds ( mph kmh ) Pressure ( in mb ) Visibility ( mi km ) Precip ( " mm )
12:53 am 00:53 Clear 18 -7.8 16 -8.9 92 92 N N/A 30.29 1026 10 16.0934 N/A
1:53 am 01:53 Cloudy 21 -6.1 16 -8.9 81 81 N N/A 30.31 1026 10 16.0934 N/A
2:53 am 02:53 Partly Cloudy 21 -6.1 15 -9.4 78 78 W 5 7 30.32 1027 10 16.0934 N/A
3:53 am 03:53 Mostly Clear 19 -7.2 14 -10 81 81 N N/A 30.29 1026 10 16.0934 N/A
4:53 am 04:53 Mostly Cloudy 20 -6.7 16 -8.9 85 85 N N/A 30.29 1026 10 16.0934 N/A
5:53 am 05:53 Mostly Clear 15 -9.4 12 -11.1 88 88 N N/A 30.3 1026 10 16.0934 N/A
6:53 am 06:53 Mostly Clear 14 -10 11 -11.7 88 88 N N/A 30.31 1026 10 16.0934 N/A
7:32 am 07:32 Mostly Cloudy 15 -9.4 12 -11.1 88 88 N N/A 30.36 1028 10 16.0934 N/A
7:53 am 07:53 Cloudy 17 -8.3 14 -10 88 88 N N/A 30.33 1027 10 16.0934 N/A
8:34 am 08:34 Mostly Cloudy 20 -6.7 17 -8.3 89 89 SW 3 6 30.36 1028 10 16.0934 N/A
8:53 am 08:53 Mostly Cloudy 23 -5 17 -8.3 78 78 SSW 5 7 30.35 1028 10 16.0934 N/A
9:53 am 09:53 Mostly Cloudy 27 -2.8 17 -8.3 66 66 WSW 10 17 30.35 1028 10 16.0934 N/A
10:53 am 10:53 Partly Cloudy 28 -2.2 18 -7.8 66 66 WSW 12 19 30.34 1028 10 16.0934 N/A
11:53 am 11:53 Cloudy 31 -0.6 18 -7.8 59 59 SW 10 17 30.34 1027 10 16.0934 N/A
12:53 pm 12:53 Cloudy 32 undefined 19 -7.2 59 59 SSW 10 17 30.31 1026 10 16.0934 N/A
1:53 pm 13:53 Partly Cloudy 34 1.1 19 -7.2 54 54 S 8 13 30.28 1026 10 16.0934 N/A
2:53 pm 14:53 Sunny 36 2.2 19 -7.2 50 50 SSW 10 17 30.26 1025 10 16.0934 N/A
3:53 pm 15:53 Sunny 37 2.8 19 -7.2 48 48 SSW 12 19 30.24 1024 10 16.0934 N/A
4:53 pm 16:53 Partly Cloudy 36 2.2 19 -7.2 50 50 SSW 8 13 30.24 1024 10 16.0934 N/A
5:53 pm 17:53 Sunny 34 1.1 19 -7.2 54 54 S 7 11 30.22 1024 10 16.0934 N/A
6:53 pm 18:53 Clear 32 undefined 20 -6.7 61 61 S 3 6 30.22 1023 10 16.0934 N/A
7:53 pm 19:53 Clear 33 0.6 20 -6.7 58 58 VRB 5 7 30.21 1023 10 16.0934 N/A
8:53 pm 20:53 Mostly Cloudy 33 0.6 20 -6.7 58 58 S 6 9 30.2 1023 10 16.0934 N/A
9:53 pm 21:53 Clear 34 1.1 20 -6.7 56 56 SSW 5 7 30.2 1023 10 16.0934 N/A
10:53 pm 22:53 Mostly Clear 34 1.1 21 -6.1 59 59 SSW 6 9 30.19 1022 10 16.0934 N/A
11:53 pm 23:53 Clear 33 0.6 21 -6.1 61 61 VRB 6 9 30.16 1021 10 16.0934 N/A

Powered by AerisWeather